This is the latest recevied weather packets stored in our database for station/object W6JCZ-13. If no packets are shown the sender has not sent any weather packets the latest 10 day(s).
| Time | Temp. | Humidity | Pressure | Rain* | Wind** | Luminosity | Snow |
|---|---|---|---|---|---|---|---|
| 1788558617 | 25.56° C | 46% | 1011.7 hPa | 0 mm | - | - | - |
| 1788558017 | 25.56° C | 46% | 1011.8 hPa | 0 mm | - | - | - |
| 1788557417 | 25° C | 49% | 1011.8 hPa | 0 mm | - | - | - |
| 1788556817 | 24.44° C | 48% | 1011.8 hPa | 0 mm | - | - | - |
| 1788556217 | 24.44° C | 53% | 1011.8 hPa | 0 mm | - | - | - |
| 1788555617 | 25° C | 49% | 1011.9 hPa | 0 mm | - | - | - |
| 1788555017 | 25° C | 47% | 1011.9 hPa | 0 mm | - | - | - |
| 1788554417 | 24.44° C | 51% | 1011.9 hPa | 0 mm | - | - | - |
| 1788553818 | 23.33° C | 51% | 1011.9 hPa | 0 mm | - | - | - |
| 1788553217 | 23.33° C | 52% | 1011.9 hPa | 0 mm | - | - | - |
| 1788552617 | 23.89° C | 52% | 1011.9 hPa | 0 mm | - | - | - |
| 1788552017 | 23.33° C | 54% | 1011.9 hPa | 0 mm | - | - | - |
| 1788551417 | 22.78° C | 55% | 1011.9 hPa | 0 mm | - | - | - |
| 1788550817 | 22.78° C | 54% | 1012 hPa | 0 mm | - | - | - |
| 1788550217 | 23.33° C | 57% | 1012.1 hPa | 0 mm | - | - | - |
| 1788549617 | 22.78° C | 55% | 1012.3 hPa | 0 mm | - | - | - |
| 1788549017 | 22.78° C | 56% | 1012.2 hPa | 0 mm | - | - | - |
| 1788548417 | 23.33° C | 54% | 1012.2 hPa | 0 mm | - | - | - |
| 1788547817 | 23.33° C | 59% | 1012.3 hPa | 0 mm | - | - | - |
| 1788547217 | 22.78° C | 62% | 1012.3 hPa | 0 mm | - | - | - |
| 1788546617 | 21.11° C | 61% | 1012.4 hPa | 0 mm | - | - | - |
| 1788546017 | 21.11° C | 62% | 1012.4 hPa | 0 mm | - | - | - |
| 1788545417 | 21.67° C | 63% | 1012.4 hPa | 0 mm | - | - | - |
| 1788544817 | 21.11° C | 67% | 1012.3 hPa | 0 mm | - | - | - |
| 1788544217 | 21.11° C | 65% | 1012.3 hPa | 0 mm | - | - | - |
* Rain latest hour (hover to see other rain measurements)
** Current wind speed in m/s (hover to see current wind gust speed)